Temperature
14 15 15 15 18 20 20 20 19 19 19 18 17 18 19 20 20 20 15 15 15 15 15 15 15 15 15 15 15 15 15 15 16 16 16 16 15 15 15 15 15 15 15 15 15 15 15 15 15
14 15 15 16 19 20 20 19 18 18 18 16 16 17 18 18 16 15 14 15 14 14 14 15 15 15 15 15 15 15 15 15 15 15 15 15 15 15 15 15 15 15 15 15 15 15 15 15 15
14 14 15 18 19 20 20 18 18 17 16 16 17 16 17 17 15 14 14 14 14 14 14 14 15 15 15 15 15 15 15 15 15 15 15 15 15 15 15 15 15 15 15 15 15 15 15 15 15
14 14 16 18 18 18 18 18 17 17 16 15 16 17 15 14 14 14 14 14 13 14 14 14 14 15 15 15 15 15 15 15 15 15 15 15 15 15 15 15 15 15 15 15 15 15 15 15 15
14 15 17 17 18 17 17 16 16 17 17 16 15 17 16 13 13 13 14 13 13 13 13 14 14 14 14 14 15 15 15 15 15 15 15 15 15 15 15 14 15 15 14 14 14 15 14 14 14
14 16 17 18 17 16 16 15 15 16 16 15 15 16 15 13 13 13 13 13 13 13 13 13 14 14 14 14 14 14 14 14 15 15 14 14 14 14 14 14 14 14 14 14 14 14 14 14 14
15 16 17 17 17 16 16 14 15 16 16 15 14 15 15 13 13 13 13 12 12 13 13 13 13 13 14 14 14 14 14 14 14 14 14 14 14 14 14 14 14 14 14 14 14 14 14 14 14
13 15 15 16 16 16 15 14 14 15 15 13 13 15 15 12 13 12 12 12 12 12 12 12 13 13 13 13 13 14 14 14 14 14 14 14 14 14 14 14 14 14 14 14 14 14 14 14 14
12 15 15 16 15 15 14 14 13 13 13 12 12 13 13 12 12 12 12 12 12 12 12 12 12 12 12 13 13 13 13 13 13 13 13 13 13 13 13 14 14 14 14 14 14 14 13 13 13
13 14 15 14 15 14 13 13 13 13 13 13 12 12 12 12 12 11 11 11 11 12 12 12 12 12 12 12 13 13 13 13 13 13 13 13 13 13 13 13 13 13 13 13 13 13 13 13 13
13 14 13 13 12 12 13 13 12 13 14 14 13 12 12 11 11 11 11 11 11 11 11 11 12 12 12 12 12 12 12 12 12 12 12 13 12 12 13 13 13 13 13 13 13 13 13 12 12
12 12 12 12 11 11 12 12 12 12 13 13 12 12 11 11 11 11 11 11 11 11 11 11 11 11 11 12 12 12 12 12 12 12 12 12 12 12 12 12 12 12 12 13 12 12 12 12 12
12 12 11 10 10 11 11 11 12 12 12 11 11 11 11 11 11 11 11 10 11 11 11 11 11 11 11 11 11 11 12 12 12 12 12 12 12 12 12 12 12 12 12 12 12 12 12 12 12
12 11 11 11 11 10 11 12 11 12 11 11 11 11 11 11 10 10 10 10 11 11 11 11 11 11 11 11 11 11 11 11 11 11 11 11 12 12 12 12 12 12 12 12 12 12 12 12 11
10 11 12 11 11 11 11 12 12 12 11 11 11 11 10 10 10 10 10 10 10 10 10 10 10 10 10 10 11 11 11 11 11 11 11 11 11 11 11 11 11 11 12 12 11 11 11 11 11
11 12 13 12 11 11 11 13 14 11 11 11 11 10 10 10 10 10 10 10 10 10 10 10 10 10 10 10 10 10 10 10 10 10 11 11 11 11 11 11 11 11 11 11 11 11 11 11 11
12 13 13 12 11 11 12 12 13 11 11 11 11 10 10 10 10 10 10 10 10 10 10 10 10 10 10 10 10 10 10 10 10 10 10 11 11 11 11 11 11 11 11 11 11 11 10 10 10
13 13 12 12 12 11 11 12 13 11 11 11 11 10 10 9 9 9 9 9 10 9 10 10 9 9 9 9 9 9 9 10 10 10 10 10 10 10 10 10 10 10 10 10 10 10 10 10 10
12 12 12 12 11 10 11 12 12 12 11 11 11 10 9 9 9 9 9 9 9 9 9 9 9 9 9 9 9 9 9 9 9 9 9 9 9 10 10 10 10 10 10 10 10 10 10 9 9
11 12 12 11 10 10 11 11 12 12 11 10 10 10 9 9 9 8 9 9 9 9 9 9 9 9 9 9 9 9 9 9 9 9 9 9 9 9 9 9 9 9 9 9 9 9 9 9 9
11 11 12 11 10 10 10 12 12 12 10 10 9 9 9 8 8 8 8 9 9 9 9 9 9 9 8 9 9 8 8 8 9 9 9 9 9 9 9 9 9 9 9 9 9 9 9 8 8
11 10 10 10 11 11 11 12 13 12 11 11 10 9 9 8 8 8 8 8 8 9 9 9 8 8 8 8 8 8 8 8 8 8 8 9 9 9 8 8 8 8 8 8 8 8 8 8 8
10 9 9 10 10 10 10 10 13 11 11 12 11 9 8 8 8 8 8 8 8 9 9 9 8 8 8 8 8 8 8 8 8 8 8 8 8 8 8 8 8 8 8 8 8 8 8 7 7
9 9 9 9 10 10 11 11 13 12 12 12 11 9 8 8 8 8 8 8 8 8 8 8 8 8 8 8 8 8 8 8 8 7 7 8 8 8 7 7 7 7 7 7 7 7 7 7 7
9 10 10 10 10 11 10 10 12 12 11 10 10 9 8 7 7 7 8 8 8 8 8 8 8 8 8 7 7 8 8 8 7 7 7 7 7 7 7 7 7 7 7 7 7 7 7 7 6
9 10 11 11 12 12 9 10 12 11 10 9 8 8 7 7 7 7 7 7 7 7 8 8 7 8 7 7 7 7 7 7 7 7 7 7 7 7 7 7 7 7 6 7 6 6 6 6 6
9 9 10 10 9 10 11 11 11 10 9 9 8 8 7 6 6 7 7 7 7 7 7 7 7 7 7 7 7 7 7 7 7 6 6 6 6 6 6 6 6 6 6 6 6 6 6 6 5
8 9 9 9 10 11 12 11 12 10 10 9 9 8 7 6 6 6 6 7 7 7 7 7 7 7 7 6 6 6 6 6 6 6 6 6 6 6 6 5 5 5 5 5 5 5 5 5 5
8 8 9 9 9 10 11 12 11 10 10 9 9 7 6 6 6 6 6 6 6 6 6 6 6 6 6 6 6 6 6 6 6 5 5 5 5 5 5 5 5 5 5 5 5 5 5 5 4
8 9 9 9 8 9 10 11 10 9 9 8 8 6 6 5 5 5 6 6 6 6 6 6 6 6 6 5 5 5 5 5 5 5 5 5 5 5 5 4 4 4 4 4 4 4 4 4 4
Wind_Speed
6 4 2 2 4 4 8 6 4 4 4 1 1 3 4 4 3 0 3 3 4 5 6 7 6 6 7 8 8 8 8 8 9 9 9 8 8 8 8 8 8 8 8 8 8 8 8 8 8
4 2 2 2 5 8 7 6 6 4 1 0 1 2 3 3 1 2 2 2 3 5 5 6 6 5 6 7 8 8 8 8 8 8 8 8 8 8 8 7 7 8 8 8 8 8 8 8 7
2 2 2 3 5 8 6 5 5 2 1 2 2 2 2 1 1 1 1 2 3 4 5 6 6 5 5 6 7 8 8 8 7 7 8 8 8 7 7 7 7 7 7 7 8 8 7 7 6
1 2 2 5 8 6 4 4 3 3 2 2 3 2 1 1 2 1 1 2 4 4 4 6 6 5 5 5 6 7 7 7 7 7 7 7 7 7 7 6 7 7 7 7 7 7 7 7 6
1 2 5 6 8 5 4 3 4 5 3 2 3 4 3 0 2 0 2 2 4 4 4 5 5 5 5 5 5 6 7 7 7 6 6 7 7 7 7 6 6 6 6 6 7 7 6 6 6
2 3 6 8 7 5 5 5 5 6 4 3 3 5 3 1 1 0 2 2 3 4 4 5 6 5 5 4 4 5 6 6 7 7 6 6 7 7 7 7 6 6 6 6 6 6 6 6 6
3 3 5 6 6 6 5 4 6 6 6 4 3 4 3 2 1 1 2 3 3 3 4 4 5 5 5 5 4 4 5 6 7 7 6 6 6 7 7 7 7 6 6 6 6 6 5 6 6
1 2 4 6 6 6 4 4 4 6 5 1 3 5 4 2 1 1 2 3 3 3 4 4 4 4 4 5 4 4 5 6 7 7 6 6 5 6 6 7 7 6 6 6 6 6 6 6 6
2 4 6 6 6 4 4 4 3 2 4 3 4 5 4 1 2 3 2 2 2 3 3 3 3 4 4 4 4 4 5 7 7 7 6 4 4 5 6 6 6 6 6 6 6 6 6 6 6
3 5 5 3 4 4 4 4 3 4 6 6 6 5 3 3 4 5 5 5 4 3 3 3 3 3 4 4 4 3 4 5 6 6 6 4 3 3 5 7 7 6 5 6 6 6 5 3 3
3 4 3 4 4 4 4 5 4 6 7 8 7 6 4 5 6 6 6 5 5 4 3 3 3 4 4 3 3 3 2 3 5 6 6 4 3 3 3 4 5 5 5 4 5 4 3 2 2
3 3 4 3 3 4 5 4 5 8 7 6 6 6 5 7 7 7 6 6 5 5 4 3 3 3 4 4 3 3 3 3 4 5 6 5 2 2 2 3 3 3 3 3 3 2 2 2 2
4 3 4 5 5 5 6 7 7 9 8 6 5 6 7 8 7 7 6 6 5 5 4 4 4 4 4 4 3 3 3 3 3 5 5 5 3 3 2 2 3 3 3 3 2 2 2 2 2
3 3 5 5 5 4 6 7 6 8 5 5 5 6 7 7 7 7 6 6 6 6 5 4 4 4 4 4 4 4 4 3 4 4 5 5 4 3 3 2 2 3 2 2 2 2 2 1 1
2 3 4 4 4 3 4 7 8 7 5 6 6 6 6 6 6 7 7 7 6 5 5 4 5 4 5 5 5 3 4 3 3 3 4 5 4 4 3 3 2 2 3 3 2 2 2 2 2
3 4 4 2 3 2 4 8 4 3 5 7 7 6 6 5 6 6 6 6 5 5 5 4 4 4 4 4 4 4 4 4 3 3 3 4 4 5 4 3 2 2 3 3 2 2 2 2 2
4 4 5 3 2 2 5 9 6 3 5 8 7 6 6 6 6 5 5 5 5 5 5 4 4 5 4 4 3 3 3 3 3 3 2 3 4 5 4 3 3 2 2 2 3 3 2 3 2
5 5 5 6 2 3 7 11 9 5 6 7 7 6 6 6 6 5 4 4 4 4 4 4 4 4 4 4 3 3 3 3 3 3 3 4 3 4 4 3 3 3 2 2 3 3 3 2 2
5 5 7 6 2 4 8 12 11 7 6 7 6 5 5 5 4 3 3 3 3 3 4 5 5 4 4 4 4 3 3 3 3 3 3 4 4 4 3 3 3 3 3 3 3 3 3 3 2
6 7 7 4 2 4 8 12 10 6 6 6 6 5 5 4 2 1 2 3 3 4 4 5 5 5 4 4 3 2 3 2 2 3 3 3 4 4 3 3 3 3 3 4 4 4 3 2 2
8 9 7 5 4 4 6 7 5 3 3 3 4 4 3 3 2 2 2 2 3 4 4 4 5 5 4 4 4 3 2 2 2 2 2 2 3 3 3 3 3 3 4 3 4 4 4 3 2
7 6 6 5 5 3 2 5 4 2 3 3 3 3 3 2 2 2 2 2 2 3 3 4 4 4 4 4 5 6 4 3 2 2 2 2 2 2 3 3 4 4 3 4 4 4 4 5 4
4 1 4 5 5 5 4 5 5 2 4 4 3 3 3 2 2 2 2 2 2 2 3 3 4 4 4 4 5 5 4 3 2 2 3 2 2 2 3 3 3 3 3 3 4 4 4 4 4
4 2 2 2 3 5 5 6 5 3 4 4 3 3 3 2 2 1 1 1 1 1 2 3 3 3 3 4 4 5 5 4 3 3 3 2 2 2 3 3 3 3 3 4 4 4 4 4 4
5 4 2 3 4 5 3 5 6 3 3 3 3 3 3 2 1 1 1 1 1 2 2 2 3 3 3 3 4 4 4 4 4 4 4 3 3 2 3 3 3 3 3 3 3 3 3 4 4
7 6 4 4 5 4 3 6 4 1 2 2 2 2 1 1 1 1 1 1 1 2 2 3 4 3 3 3 3 3 3 3 3 3 4 4 3 2 3 3 3 3 3 3 3 3 4 4 4
6 6 3 2 2 4 5 5 5 2 2 1 1 1 1 1 1 2 2 1 1 1 2 3 4 4 3 3 3 3 3 3 3 3 3 3 2 2 3 3 3 3 3 3 3 3 4 4 4
3 5 4 5 4 6 6 6 5 4 3 1 1 2 2 2 2 2 1 1 0 1 2 3 3 4 4 3 3 2 3 3 3 3 3 3 3 3 3 3 3 3 3 3 3 3 4 4 4
6 6 5 4 4 5 6 4 1 3 2 2 2 2 3 2 2 2 1 1 0 1 1 1 2 2 3 3 3 2 2 3 3 3 3 3 3 3 3 4 3 3 3 3 3 4 4 5 5
7 8 8 6 6 5 5 5 2 2 1 1 2 3 3 3 2 2 1 1 1 1 1 1 2 2 2 2 2 2 2 2 3 3 3 3 4 4 4 4 4 4 4 4 4 5 5 6 6
Wind_Direction
336 329 284 231 209 218 226 207 201 190 192 224 284 253 253 246 246 27 72 105 123 131 130 125 115 121 129 130 129 130 131 133 137 136 134 131 127 125 125 122 120 116 111 108 105 107 109 106 103
334 314 225 217 227 226 220 203 199 195 188 256 219 231 243 236 355 45 99 110 134 133 131 123 110 118 126 131 133 132 131 129 134 138 137 135 132 127 123 123 121 116 112 109 108 103 103 108 106
330 321 223 204 225 235 217 191 191 191 207 233 230 241 267 272 47 83 83 148 146 137 133 119 111 110 119 131 138 138 134 133 134 138 140 139 136 132 126 122 119 117 116 114 112 109 105 104 108
258 191 205 222 224 232 231 192 188 200 199 235 263 250 232 350 336 355 110 169 155 145 134 122 117 108 112 126 139 145 143 140 138 138 142 140 136 130 125 122 116 114 115 117 117 114 108 106 104
244 216 206 220 229 224 225 229 217 225 224 225 258 261 242 3 340 346 153 165 164 153 138 134 126 119 115 118 138 147 150 149 143 142 141 142 136 130 126 120 116 116 119 124 125 120 114 111 107
187 214 219 225 221 218 219 222 224 235 238 246 258 259 242 97 15 100 167 185 179 165 152 145 139 127 122 122 126 145 148 148 146 141 142 136 135 129 127 126 122 119 118 120 124 121 117 112 107
214 216 231 229 223 223 213 214 227 236 239 246 259 252 219 200 329 261 210 196 187 170 161 155 156 142 130 125 125 136 140 140 136 128 118 119 127 130 129 128 126 122 117 117 116 117 120 116 110
230 213 218 221 223 228 202 215 241 245 249 262 239 241 248 263 278 240 222 204 191 181 177 165 162 159 152 142 129 129 138 138 137 127 115 104 110 128 128 132 126 123 120 115 115 113 108 110 109
204 220 228 221 221 224 201 225 243 251 234 242 247 271 303 270 224 213 209 208 202 201 195 179 175 167 163 158 138 137 143 144 146 138 125 134 143 147 143 127 122 120 118 118 116 114 110 110 107
203 223 230 228 232 240 226 243 241 230 237 247 248 259 266 228 220 216 212 215 215 217 219 200 189 181 174 163 153 150 165 167 166 157 153 162 164 146 142 129 122 120 122 124 117 119 129 144 124
206 227 226 238 246 253 246 253 241 238 250 249 252 256 250 233 229 225 224 222 220 219 218 213 203 192 183 170 162 153 155 170 171 165 161 157 162 156 149 147 142 142 148 143 136 149 140 131 109
211 228 240 247 247 242 248 253 250 245 258 273 268 259 246 238 233 230 228 227 226 219 220 225 209 203 191 180 174 171 160 172 175 171 171 163 162 175 158 161 158 159 158 150 155 149 141 134 126
219 226 239 247 251 250 250 254 268 263 265 274 268 251 244 242 240 234 230 229 224 221 219 226 215 209 196 186 185 180 173 181 177 173 175 170 171 184 162 160 165 165 161 162 161 160 151 147 129
225 240 255 258 246 240 248 260 257 264 264 264 257 251 246 243 241 237 227 230 226 225 222 223 223 210 202 197 194 187 180 177 182 168 173 174 177 178 170 155 168 166 165 159 165 155 156 154 142
219 245 252 234 232 236 256 262 239 254 258 265 266 261 254 249 243 239 232 233 230 226 223 223 220 206 206 202 199 190 184 183 186 166 165 176 177 172 166 165 169 172 168 168 157 144 150 144 140
211 226 239 204 219 224 243 263 252 238 258 269 271 268 263 256 250 247 239 238 235 228 214 212 219 204 204 197 192 189 189 182 179 166 172 171 173 163 165 166 169 175 176 172 165 161 156 150 147
209 233 248 253 211 231 242 265 276 281 271 272 272 268 265 263 260 253 243 237 232 225 211 198 213 203 193 185 178 182 173 171 161 157 168 164 168 165 167 166 165 171 184 176 170 170 168 157 144
214 229 243 253 231 253 257 267 283 289 279 277 279 275 267 262 260 250 242 234 226 219 207 193 201 191 176 165 161 161 156 160 155 159 161 153 162 167 162 162 163 170 180 178 176 164 159 152 146
220 230 253 264 272 270 265 276 283 285 284 283 282 281 275 272 268 248 233 230 223 214 199 188 192 186 177 166 167 167 170 167 169 169 167 162 158 154 164 167 168 176 186 184 173 158 153 151 149
221 239 257 267 266 271 282 283 280 275 270 278 281 282 280 280 275 236 215 214 213 209 201 186 190 187 185 174 166 173 166 174 171 168 167 168 162 156 170 177 175 181 187 183 179 170 170 167 195
230 234 249 268 297 254 289 279 252 254 264 270 274 276 274 261 245 223 210 216 209 203 204 193 188 185 182 166 152 139 143 145 149 159 163 162 157 160 168 183 184 186 195 191 190 186 189 190 201
237 233 243 256 271 271 284 280 257 258 278 279 271 270 272 270 256 231 217 217 219 206 200 194 183 178 177 168 166 167 175 184 189 175 163 151 150 160 171 184 190 189 195 195 196 202 200 195 201
231 209 230 247 251 267 243 252 263 240 264 272 273 270 274 279 261 237 227 215 212 196 191 182 172 167 170 180 177 178 182 178 154 158 159 154 150 172 175 183 190 190 194 196 195 200 206 205 206
172 157 161 201 226 249 232 231 259 227 250 272 275 281 271 266 262 239 224 194 172 169 173 168 165 169 178 185 185 183 180 165 163 178 177 179 171 174 178 182 191 195 192 195 196 200 208 212 209
191 194 219 222 225 241 186 233 252 247 260 269 278 284 280 266 254 217 203 188 183 178 168 173 173 173 181 186 189 190 183 174 181 194 194 193 189 191 182 180 190 198 192 192 193 197 208 210 210
200 211 221 240 249 258 212 238 247 278 289 282 283 307 315 286 250 229 227 225 217 195 175 179 184 180 182 188 193 195 187 181 184 198 200 199 199 198 181 184 194 201 196 191 190 199 207 208 210
192 210 244 240 269 261 241 251 262 228 248 249 277 332 355 328 282 263 248 232 225 198 182 192 189 187 188 191 194 197 193 187 188 199 202 199 197 187 182 187 197 202 202 200 197 209 212 210 214
238 184 180 207 227 248 253 249 242 210 212 208 286 324 338 336 316 299 287 271 242 174 166 181 188 189 189 193 200 204 202 195 190 196 198 197 197 189 185 193 203 207 211 211 212 217 218 216 220
185 197 212 217 241 240 251 251 212 202 193 232 263 305 317 316 308 296 286 263 150 137 152 168 179 179 183 190 201 208 214 209 197 202 208 204 203 202 203 205 210 215 222 226 224 226 222 222 226
221 215 203 215 224 234 253 259 104 175 195 271 287 298 305 305 299 287 279 229 169 165 186 199 193 186 189 190 198 212 223 220 211 214 217 212 209 212 213 215 218 225 232 234 234 234 228 225 229
Height
1520 1521 1522 1524 1523 1518 1514 1515 1517 1519 1520 1522 1523 1522 1520 1519 1520 1524 1524 1522 1522 1524 1525 1526 1527 1528 1530 1531 1532 1533 1533 1534 1534 1535 1535 1536 1536 1536 1537 1537 1538 1538 1538 1538 1538 1539 1539 1539 1539
1520 1521 1524 1524 1518 1514 1513 1515 1518 1519 1522 1523 1523 1523 1521 1521 1522 1522 1521 1521 1522 1524 1525 1526 1527 1528 1529 1530 1531 1532 1533 1533 1534 1534 1535 1535 1536 1536 1536 1537 1537 1538 1538 1538 1538 1538 1539 1539 1539
1521 1521 1524 1520 1516 1511 1512 1515 1518 1522 1523 1523 1523 1522 1522 1522 1522 1521 1521 1521 1522 1524 1525 1525 1526 1527 1528 1529 1530 1531 1532 1532 1533 1534 1534 1535 1535 1536 1536 1536 1537 1537 1537 1538 1538 1538 1538 1539 1539
1521 1523 1523 1518 1515 1514 1514 1517 1520 1521 1522 1523 1523 1522 1522 1522 1521 1521 1520 1520 1522 1523 1524 1525 1526 1526 1527 1528 1529 1530 1531 1531 1532 1533 1533 1534 1534 1535 1535 1536 1536 1537 1537 1537 1538 1538 1538 1538 1539
1521 1522 1519 1516 1514 1516 1518 1519 1521 1519 1520 1521 1522 1520 1520 1521 1519 1519 1519 1520 1521 1522 1523 1524 1525 1525 1526 1527 1528 1529 1529 1530 1531 1532 1532 1533 1533 1534 1534 1535 1536 1536 1536 1537 1537 1538 1538 1538 1538
1522 1520 1515 1513 1513 1516 1518 1520 1520 1519 1519 1521 1521 1520 1520 1520 1519 1518 1519 1519 1520 1521 1522 1522 1523 1524 1525 1526 1527 1527 1528 1529 1529 1530 1531 1532 1532 1533 1534 1534 1535 1535 1536 1536 1537 1537 1537 1538 1538
1522 1518 1513 1511 1513 1515 1518 1520 1519 1518 1518 1520 1520 1519 1518 1518 1518 1517 1518 1518 1519 1520 1520 1521 1522 1523 1523 1524 1525 1526 1527 1527 1528 1529 1529 1530 1531 1532 1533 1533 1534 1534 1535 1535 1536 1536 1537 1537 1537
1520 1519 1516 1514 1513 1514 1517 1519 1519 1518 1518 1519 1520 1518 1517 1517 1516 1516 1516 1516 1517 1518 1518 1519 1520 1521 1522 1522 1523 1524 1525 1525 1526 1527 1528 1528 1529 1531 1531 1532 1533 1533 1534 1534 1535 1535 1536 1536 1537
1520 1520 1514 1512 1513 1514 1517 1518 1518 1518 1517 1517 1517 1517 1516 1515 1514 1514 1514 1514 1515 1515 1516 1517 1518 1519 1520 1520 1521 1522 1523 1523 1524 1525 1525 1527 1528 1529 1530 1531 1531 1532 1533 1533 1534 1535 1535 1536 1536
1519 1516 1513 1514 1515 1515 1516 1517 1517 1516 1515 1515 1515 1514 1514 1513 1512 1512 1512 1512 1512 1513 1514 1515 1516 1516 1517 1518 1519 1520 1521 1522 1522 1523 1524 1526 1527 1527 1528 1529 1530 1531 1531 1532 1533 1533 1534 1535 1535
1517 1515 1515 1516 1516 1516 1516 1516 1516 1514 1512 1512 1512 1512 1511 1511 1511 1510 1510 1510 1511 1511 1512 1512 1513 1514 1515 1516 1516 1518 1518 1519 1520 1521 1523 1524 1525 1526 1527 1528 1528 1529 1530 1531 1531 1532 1533 1534 1534
1517 1516 1516 1516 1516 1516 1515 1514 1514 1512 1511 1510 1510 1510 1509 1508 1508 1507 1507 1508 1508 1509 1509 1510 1511 1512 1513 1513 1514 1515 1516 1517 1518 1519 1520 1522 1523 1524 1525 1526 1527 1528 1529 1529 1530 1531 1531 1532 1532
1516 1515 1516 1515 1515 1515 1514 1513 1512 1509 1508 1508 1507 1507 1506 1505 1505 1505 1505 1506 1506 1506 1507 1507 1508 1509 1510 1511 1512 1513 1514 1515 1516 1517 1518 1519 1521 1522 1523 1524 1525 1526 1527 1528 1529 1529 1530 1530 1531
1515 1515 1514 1514 1513 1513 1512 1510 1510 1505 1505 1505 1505 1504 1503 1503 1502 1502 1502 1502 1503 1504 1504 1504 1505 1506 1507 1508 1509 1510 1511 1512 1513 1514 1515 1517 1518 1519 1521 1522 1523 1524 1525 1526 1527 1527 1528 1528 1529
1515 1513 1512 1511 1512 1511 1511 1506 1504 1503 1503 1502 1502 1502 1501 1500 1500 1499 1499 1500 1500 1501 1501 1501 1502 1503 1504 1505 1507 1507 1509 1510 1511 1511 1513 1514 1516 1517 1518 1520 1521 1522 1523 1524 1525 1525 1526 1526 1527
1513 1510 1507 1508 1510 1510 1511 1500 1499 1501 1501 1500 1499 1499 1498 1497 1497 1497 1497 1497 1497 1498 1498 1499 1499 1500 1501 1502 1503 1505 1506 1507 1508 1509 1511 1512 1513 1514 1516 1517 1519 1520 1521 1522 1522 1523 1524 1524 1525
1508 1505 1503 1505 1508 1508 1507 1499 1497 1499 1499 1498 1497 1496 1495 1495 1494 1494 1494 1494 1495 1495 1495 1496 1497 1497 1498 1499 1500 1502 1503 1504 1505 1507 1508 1509 1511 1512 1513 1515 1516 1517 1518 1519 1520 1521 1521 1522 1522
1504 1503 1503 1503 1505 1506 1503 1497 1495 1496 1497 1495 1494 1493 1493 1492 1492 1491 1491 1491 1492 1492 1492 1493 1494 1494 1495 1496 1497 1499 1501 1502 1503 1504 1506 1507 1509 1510 1511 1512 1514 1515 1516 1517 1517 1518 1519 1520 1520
1503 1503 1501 1501 1504 1505 1499 1496 1493 1493 1493 1492 1491 1490 1490 1489 1489 1489 1488 1489 1489 1489 1490 1490 1491 1492 1493 1493 1495 1496 1498 1499 1501 1502 1504 1505 1506 1507 1509 1510 1511 1512 1513 1514 1515 1516 1517 1517 1518
1503 1502 1500 1502 1505 1504 1498 1493 1489 1490 1490 1490 1489 1488 1487 1487 1486 1486 1486 1486 1486 1487 1487 1487 1488 1489 1490 1492 1493 1495 1496 1497 1499 1500 1501 1503 1504 1505 1507 1508 1508 1510 1511 1512 1513 1513 1514 1514 1516
1501 1500 1499 1501 1503 1502 1500 1488 1485 1486 1488 1488 1487 1486 1485 1485 1485 1484 1484 1484 1484 1485 1485 1486 1486 1487 1488 1490 1492 1493 1494 1495 1496 1497 1499 1501 1502 1503 1504 1505 1506 1507 1509 1509 1510 1511 1512 1512 1513
1498 1500 1502 1502 1499 1495 1498 1489 1479 1482 1484 1484 1484 1484 1483 1483 1483 1483 1483 1482 1483 1483 1484 1485 1486 1486 1487 1489 1490 1491 1492 1493 1494 1495 1497 1498 1500 1501 1502 1503 1504 1505 1506 1507 1508 1509 1509 1510 1510
1498 1502 1502 1501 1498 1498 1496 1494 1478 1481 1481 1480 1481 1482 1482 1482 1481 1481 1481 1481 1481 1482 1483 1483 1484 1485 1486 1487 1488 1489 1491 1492 1493 1494 1495 1496 1497 1498 1499 1501 1501 1502 1503 1504 1505 1506 1507 1507 1507
1502 1502 1502 1502 1499 1497 1490 1490 1475 1476 1477 1477 1479 1481 1480 1480 1480 1480 1480 1480 1480 1480 1481 1481 1482 1483 1484 1485 1487 1488 1489 1489 1491 1492 1493 1494 1495 1496 1497 1498 1498 1499 1500 1501 1502 1503 1503 1504 1504
1499 1497 1496 1495 1493 1485 1490 1489 1476 1474 1476 1478 1479 1479 1479 1479 1478 1478 1478 1478 1478 1478 1478 1479 1480 1481 1482 1484 1485 1486 1487 1488 1489 1490 1491 1492 1492 1493 1494 1495 1496 1497 1497 1498 1498 1499 1500 1500 1500
1495 1492 1492 1488 1481 1477 1489 1483 1472 1475 1477 1478 1478 1478 1478 1477 1477 1476 1476 1476 1476 1476 1477 1477 1479 1479 1481 1482 1483 1484 1485 1486 1487 1488 1489 1490 1490 1490 1491 1492 1493 1493 1494 1495 1495 1496 1496 1497 1497
1492 1492 1491 1491 1494 1488 1475 1474 1472 1474 1475 1476 1477 1477 1476 1476 1475 1475 1474 1474 1474 1474 1475 1476 1477 1478 1479 1480 1481 1482 1483 1483 1484 1486 1487 1487 1487 1487 1488 1489 1490 1490 1491 1491 1491 1492 1492 1493 1493
1493 1490 1493 1491 1487 1478 1470 1470 1466 1469 1470 1473 1474 1475 1475 1475 1474 1473 1472 1472 1473 1473 1473 1475 1475 1476 1477 1478 1479 1480 1481 1481 1482 1483 1484 1484 1484 1484 1485 1486 1486 1487 1487 1487 1488 1488 1488 1489 1489
1492 1492 1488 1485 1484 1477 1471 1464 1463 1466 1469 1471 1473 1473 1473 1473 1472 1472 1471 1471 1471 1471 1472 1473 1473 1474 1475 1476 1476 1477 1478 1479 1480 1480 1480 1481 1481 1482 1482 1482 1483 1483 1483 1484 1484 1484 1484 1485 1485
1487 1484 1485 1484 1484 1482 1473 1467 1466 1468 1470 1472 1472 1473 1472 1472 1471 1470 1470 1470 1470 1470 1470 1471 1471 1472 1473 1474 1474 1475 1476 1476 1476 1477 1478 1478 1478 1478 1479 1479 1479 1480 1480 1480 1480 1480 1480 1480 1481